�N����,����,�~����,�C��,���x,�C��,����,���ϕ���,�ő�u�ԕ���,�ő厞����,���˗�,�I�_���x,�n�����x,�ő啗���N��,DTYPE
"22/09/02","00:10",0.2,23.1,95.7,1008.1,276.8,0.7,1.9,232.0,0.00,22.4,26.1,"00:00:08",1
"22/09/02","00:20",3.2,23.0,95.8,1008.1,319.8,0.8,2.2,328.3,0.00,22.3,26.2,"00:15:44",1
"22/09/02","00:30",5.4,22.8,95.8,1008.3,323.2,1.0,1.7,313.7,0.00,22.1,26.0,"00:22:08",1
"22/09/02","00:40",0.4,22.5,96.0,1008.1,290.8,0.7,1.3,309.8,0.00,21.9,25.7,"00:38:32",1
"22/09/02","00:50",0.0,22.6,96.0,1007.8,323.4,1.1,1.9,349.1,0.00,22.0,25.7,"00:47:12",1
"22/09/02","01:00",0.0,22.6,96.1,1008.1,346.3,1.2,2.6,351.7,0.00,22.0,25.8,"00:58:48",1
"22/09/02","01:10",0.0,22.5,96.1,1008.1,336.3,1.5,3.2,335.9,0.00,21.9,25.6,"01:06:00",1
"22/09/02","01:20",0.0,22.5,96.2,1007.8,339.2,1.0,2.0,352.4,0.00,21.9,25.7,"01:12:24",1
"22/09/02","01:30",0.2,22.6,96.2,1008.3,302.7,1.0,2.1,337.4,0.00,22.0,25.7,"01:29:12",1
"22/09/02","01:40",2.0,22.4,96.2,1008.1,323.6,1.3,2.5,344.0,0.00,21.8,25.8,"01:39:04",1
"22/09/02","01:50",3.0,22.4,96.3,1008.3,328.7,1.3,2.2,337.5,0.00,21.8,25.6,"01:46:48",1
"22/09/02","02:00",0.0,22.4,96.4,1008.6,335.3,1.5,2.4,333.7,0.00,21.8,25.7,"01:56:24",1
"22/09/02","02:10",0.0,22.4,96.4,1008.8,301.9,1.1,2.5,326.8,0.00,21.8,25.5,"02:00:48",1
"22/09/02","02:20",0.0,22.5,96.4,1008.6,286.9,0.7,2.1,329.9,0.00,21.9,25.6,"02:11:04",1
"22/09/02","02:30",0.0,22.5,96.4,1008.3,338.5,0.8,2.4,346.6,0.00,21.9,25.6,"02:28:08",1
"22/09/02","02:40",0.0,22.5,96.4,1008.6,325.8,0.5,1.2,289.0,0.00,21.9,25.7,"02:33:36",1
"22/09/02","02:50",0.0,22.6,96.4,1008.3,339.5,0.2,0.8,331.7,0.00,22.0,25.6,"02:40:32",1
"22/09/02","03:00",0.0,22.6,96.5,1008.1,305.0,1.0,2.2,334.3,0.00,22.1,25.7,"02:58:56",1
"22/09/02","03:10",0.0,22.5,96.5,1008.1,301.2,1.0,2.0,311.8,0.00,22.0,25.5,"03:00:56",1
"22/09/02","03:20",0.0,22.5,96.5,1008.1,282.9,0.8,1.3,269.0,0.00,22.0,25.5,"03:18:56",1
"22/09/02","03:30",0.0,22.2,96.6,1008.3,322.0,1.5,3.1,325.8,0.00,21.7,25.6,"03:25:04",1
"22/09/02","03:40",0.0,22.2,96.6,1008.3,322.4,1.5,2.7,334.6,0.00,21.7,25.5,"03:39:28",1
"22/09/02","03:50",0.0,22.3,96.6,1008.3,322.4,1.1,2.2,13.3,0.00,21.8,25.2,"03:47:20",1
"22/09/02","04:00",0.0,22.2,96.7,1008.1,346.5,1.6,2.9,6.3,0.00,21.7,25.4,"03:52:40",1
"22/09/02","04:10",0.0,22.2,96.7,1008.6,337.8,1.3,2.7,347.7,0.00,21.7,25.3,"04:02:32",1
"22/09/02","04:20",0.0,22.3,96.7,1008.1,320.5,1.1,2.2,338.5,0.00,21.8,25.3,"04:10:48",1
"22/09/02","04:30",0.0,22.3,96.6,1008.3,317.0,1.2,2.2,306.3,0.00,21.8,25.3,"04:29:44",1
"22/09/02","04:40",0.2,22.2,96.7,1007.8,327.7,1.7,2.8,313.1,0.00,21.7,25.4,"04:36:32",1
"22/09/02","04:50",0.0,22.1,96.7,1008.1,321.9,1.3,2.6,337.1,0.00,21.6,25.3,"04:41:04",1
"22/09/02","05:00",0.0,22.2,96.7,1008.3,32.8,0.3,1.0,312.1,0.00,21.7,25.2,"04:50:08",1
"22/09/02","05:10",0.4,22.1,96.7,1008.6,356.6,0.2,0.9,34.2,0.00,21.6,25.6,"05:08:00",1
"22/09/02","05:20",0.2,22.2,96.7,1008.1,329.7,0.5,1.0,338.7,0.00,21.7,25.4,"05:14:00",1
"22/09/02","05:30",0.0,22.1,96.7,1008.1,353.6,1.0,1.8,340.2,0.00,21.6,25.4,"05:22:32",1
"22/09/02","05:40",0.0,22.1,96.8,1008.1,352.1,1.0,1.9,23.6,0.00,21.6,25.2,"05:39:52",1
"22/09/02","05:50",0.0,22.1,96.8,1008.3,345.6,1.3,2.7,344.6,0.00,21.6,25.3,"05:43:44",1
"22/09/02","06:00",0.0,22.2,96.8,1008.6,348.9,1.6,3.6,338.9,0.00,21.7,25.4,"05:58:56",1
"22/09/02","06:10",0.0,22.3,96.8,1008.6,349.9,1.1,2.6,335.5,0.00,21.8,25.5,"06:00:24",1
"22/09/02","06:20",0.0,22.3,96.8,1008.8,351.2,1.0,2.1,16.7,0.00,21.8,25.6,"06:13:44",1
"22/09/02","06:30",0.0,22.4,96.7,1009.3,224.2,0.7,1.7,190.1,0.00,21.9,25.5,"06:25:52",1
"22/09/02","06:40",0.0,22.6,96.8,1009.0,341.4,1.3,2.6,335.7,0.00,22.1,25.5,"06:35:44",1
"22/09/02","06:50",0.0,22.5,96.8,1009.3,322.4,1.6,3.1,340.6,0.00,22.0,25.4,"06:45:44",1
"22/09/02","07:00",0.0,22.6,96.8,1009.0,313.7,1.1,2.2,329.4,0.00,22.1,25.4,"06:58:08",1
"22/09/02","07:10",0.0,22.8,96.8,1009.5,310.6,0.7,1.4,327.9,0.00,22.3,25.4,"07:02:08",1
"22/09/02","07:20",0.0,22.9,96.7,1009.5,347.3,0.8,1.2,344.1,0.00,22.4,25.4,"07:14:32",1
"22/09/02","07:30",2.0,22.8,96.7,1010.0,343.7,1.2,2.2,331.7,0.00,22.3,25.2,"07:29:36",1
"22/09/02","07:40",2.0,22.6,96.7,1009.7,286.2,1.0,2.2,239.9,0.00,22.1,25.4,"07:39:28",1
"22/09/02","07:50",0.4,22.6,96.8,1009.7,267.4,0.8,2.4,250.1,0.00,22.1,25.2,"07:41:20",1
"22/09/02","08:00",0.0,22.6,96.9,1010.2,258.1,0.8,1.8,242.6,0.02,22.1,25.3,"07:52:56",1
"22/09/02","08:10",0.0,22.7,96.8,1010.0,312.7,0.6,1.7,315.2,0.03,22.2,25.2,"08:03:36",1
"22/09/02","08:20",0.0,22.9,96.9,1010.0,297.4,0.6,1.0,317.0,0.06,22.4,25.2,"08:19:04",1
"22/09/02","08:30",0.0,23.4,96.9,1009.7,332.4,0.8,1.8,344.1,0.16,22.9,25.2,"08:22:48",1
"22/09/02","08:40",0.0,23.8,96.7,1009.7,1.5,0.8,1.6,341.5,0.18,23.3,25.3,"08:33:28",1
"22/09/02","08:50",0.0,24.2,96.4,1010.0,310.7,0.5,1.4,340.8,0.13,23.6,25.3,"08:40:08",1
"22/09/02","09:00",0.0,24.2,96.3,1009.5,208.8,0.2,1.0,133.0,0.06,23.6,25.2,"08:53:28",1
"22/09/02","09:10",0.0,24.0,96.3,1009.5,332.0,1.0,1.7,348.6,0.07,23.4,25.2,"09:03:20",1
"22/09/02","09:20",0.0,24.1,96.2,1009.0,321.3,0.7,2.0,347.6,0.09,23.5,25.0,"09:10:08",1
"22/09/02","09:30",0.0,24.8,96.1,1009.3,332.6,0.7,1.4,328.8,0.18,24.2,25.3,"09:22:16",1
"22/09/02","09:40",0.0,25.0,95.9,1008.6,298.7,0.7,1.6,248.8,0.19,24.3,25.3,"09:37:12",1
"22/09/02","09:50",0.0,25.3,95.0,1008.8,195.3,0.7,1.9,210.3,0.23,24.5,25.3,"09:43:44",1
"22/09/02","10:00",0.0,25.7,93.6,1008.8,166.8,1.1,2.1,128.0,0.27,24.6,25.3,"09:55:44",1
"22/09/02","10:10",0.0,26.1,93.5,1009.0,174.2,1.1,2.1,145.0,0.24,25.0,25.3,"10:00:56",1
"22/09/02","10:20",0.0,26.1,93.1,1008.1,192.5,1.2,2.7,202.3,0.24,24.9,25.4,"10:12:40",1
"22/09/02","10:30",0.0,26.5,90.6,1008.1,177.2,1.2,2.2,190.8,0.25,24.9,25.5,"10:26:24",1
"22/09/02","10:40",0.0,27.3,87.6,1008.1,129.7,0.6,2.4,105.8,0.28,25.1,25.6,"10:37:12",1
"22/09/02","10:50",0.0,28.3,83.5,1008.6,162.6,0.7,2.0,200.8,0.32,25.3,25.7,"10:45:52",1
"22/09/02","11:00",0.0,29.2,79.6,1009.3,157.5,0.5,1.4,198.4,0.32,25.3,25.6,"10:59:20",1
"22/09/02","11:10",0.0,29.6,77.1,1009.5,183.6,0.7,1.8,189.0,0.35,25.2,25.7,"11:03:44",1
"22/09/02","11:20",0.0,30.8,73.3,1009.7,131.3,0.8,2.1,123.5,0.57,25.5,25.6,"11:16:24",1
"22/09/02","11:30",0.0,31.2,69.6,1009.7,155.1,0.8,2.2,228.9,0.55,25.0,25.6,"11:27:52",1
"22/09/02","11:40",0.0,31.4,69.0,1009.7,201.4,1.0,2.7,225.7,0.61,25.1,25.7,"11:37:04",1
"22/09/02","11:50",0.0,31.8,68.6,1010.0,203.9,1.1,2.7,220.0,0.66,25.3,26.0,"11:47:36",1
"22/09/02","12:00",0.0,31.7,67.8,1009.5,47.6,1.2,3.6,19.9,0.42,25.1,25.9,"11:53:12",1
"22/09/02","12:10",0.0,31.2,68.0,1009.3,135.4,0.7,1.8,128.6,0.24,24.6,26.1,"12:01:52",1
"22/09/02","12:20",0.0,30.3,68.5,1009.0,163.8,0.7,2.5,132.7,0.13,23.9,26.1,"12:11:12",1
"22/09/02","12:30",0.0,30.0,69.0,1008.8,5.8,0.8,2.4,26.9,0.09,23.7,26.1,"12:28:56",1
"22/09/02","12:40",0.0,29.8,69.5,1008.1,19.8,1.1,2.7,23.4,0.13,23.7,26.2,"12:36:00",1
"22/09/02","12:50",0.0,30.2,70.6,1007.8,4.1,0.7,2.2,17.3,0.24,24.3,26.5,"12:40:24",1
"22/09/02","13:00",0.0,30.7,68.0,1008.1,30.3,0.7,2.4,5.9,0.26,24.2,26.5,"12:51:52",1
"22/09/02","13:10",0.0,30.7,68.2,1008.1,338.1,1.3,2.8,342.4,0.24,24.2,26.4,"13:08:24",1
"22/09/02","13:20",0.0,30.8,69.0,1007.8,314.6,0.8,2.1,339.7,0.24,24.5,26.4,"13:15:20",1
"22/09/02","13:30",0.0,31.1,68.5,1007.8,320.4,0.8,1.9,359.1,0.29,24.7,26.7,"13:20:24",1
"22/09/02","13:40",0.0,31.7,67.1,1008.1,300.3,0.8,2.7,356.4,0.42,24.9,26.6,"13:34:16",1
"22/09/02","13:50",0.0,32.1,63.7,1008.8,225.6,1.0,3.1,232.0,0.53,24.4,26.7,"13:47:28",1
"22/09/02","14:00",0.0,32.7,62.2,1008.6,138.4,0.8,2.4,138.2,0.52,24.6,26.8,"13:53:28",1
"22/09/02","14:10",0.0,33.8,61.3,1008.8,294.3,0.7,1.9,331.3,0.57,25.3,26.8,"14:09:28",1
"22/09/02","14:20",0.0,32.5,61.8,1009.0,326.0,1.5,3.4,1.1,0.35,24.3,26.9,"14:19:28",1
"22/09/02","14:30",0.0,32.0,63.3,1008.8,348.6,1.2,2.4,347.1,0.21,24.2,27.2,"14:22:16",1
"22/09/02","14:40",0.0,31.3,64.0,1008.1,309.6,1.2,2.6,330.2,0.20,23.7,27.1,"14:36:16",1
"22/09/02","14:50",0.0,31.8,63.2,1007.6,340.6,1.1,3.1,316.7,0.33,24.0,27.0,"14:40:16",1
"22/09/02","15:00",0.0,32.8,60.3,1008.1,319.3,1.1,2.8,343.6,0.48,24.1,27.3,"14:50:32",1
"22/09/02","15:10",0.0,33.0,60.3,1008.3,285.7,1.0,3.6,350.7,0.46,24.3,27.4,"15:09:44",1
"22/09/02","15:20",0.0,32.5,61.4,1008.1,295.5,0.7,1.9,347.7,0.24,24.2,27.6,"15:12:08",1
"22/09/02","15:30",0.0,32.5,62.6,1008.1,312.9,1.2,2.5,305.4,0.39,24.5,27.5,"15:24:40",1
"22/09/02","15:40",0.0,32.8,61.5,1007.8,261.1,1.3,3.1,224.3,0.38,24.5,27.6,"15:30:24",1
"22/09/02","15:50",0.0,32.9,63.0,1008.1,293.4,1.2,3.5,351.7,0.37,25.0,27.8,"15:46:48",1
"22/09/02","16:00",0.0,32.5,61.9,1008.1,322.7,1.6,4.9,346.7,0.37,24.3,27.9,"15:55:20",1
"22/09/02","16:10",0.0,32.1,63.1,1007.8,339.5,2.0,4.1,2.4,0.30,24.2,28.0,"16:08:56",1
"22/09/02","16:20",0.0,31.7,63.7,1007.8,354.1,2.0,5.1,13.6,0.26,24.0,27.7,"16:12:16",1
"22/09/02","16:30",0.0,30.4,65.0,1007.4,343.4,3.0,5.5,326.5,0.22,23.1,28.0,"16:28:32",1
"22/09/02","16:40",0.0,30.6,66.4,1007.1,332.1,2.2,5.0,318.6,0.24,23.7,28.0,"16:32:32",1
"22/09/02","16:50",0.0,30.0,66.9,1007.1,348.6,2.6,5.2,327.8,0.18,23.2,28.0,"16:47:12",1
"22/09/02","17:00",0.0,29.2,68.5,1006.9,339.8,2.5,4.2,339.6,0.06,22.8,28.1,"16:52:40",1
"22/09/02","17:10",0.0,28.8,70.3,1006.7,342.6,2.8,6.6,327.3,0.05,22.9,28.2,"17:06:16",1
"22/09/02","17:20",0.0,28.6,72.1,1006.2,337.7,2.7,5.5,336.5,0.08,23.1,28.1,"17:14:48",1
"22/09/02","17:30",0.0,28.3,72.8,1006.2,342.4,2.7,4.2,352.7,0.04,23.0,28.2,"17:27:12",1
"22/09/02","17:40",0.0,27.9,73.3,1006.7,337.6,2.7,7.1,321.6,0.02,22.7,28.1,"17:33:28",1
"22/09/02","17:50",0.0,27.9,74.1,1006.7,339.4,2.2,5.4,343.7,0.04,22.9,28.1,"17:48:32",1
"22/09/02","18:00",0.0,27.6,74.4,1006.4,337.3,2.8,5.4,350.8,0.03,22.7,28.2,"17:56:24",1
"22/09/02","18:10",0.0,27.4,76.0,1006.9,342.5,2.2,5.4,342.8,0.02,22.8,28.0,"18:01:44",1
"22/09/02","18:20",0.0,27.2,76.6,1006.9,337.6,2.7,4.9,357.3,0.01,22.8,28.1,"18:18:16",1
"22/09/02","18:30",0.0,26.9,77.1,1007.1,331.1,2.6,4.2,340.8,0.00,22.6,27.9,"18:28:16",1
"22/09/02","18:40",0.0,26.9,77.3,1006.9,323.0,2.0,4.0,317.6,0.00,22.6,28.1,"18:31:44",1
"22/09/02","18:50",0.0,26.8,77.6,1007.4,333.2,2.5,5.1,347.4,0.00,22.6,28.0,"18:45:36",1
"22/09/02","19:00",0.0,26.5,78.8,1007.8,302.8,1.3,2.9,333.1,0.00,22.6,28.1,"18:56:16",1
"22/09/02","19:10",0.0,26.2,80.1,1008.1,315.0,1.2,3.2,345.9,0.00,22.5,27.8,"19:04:16",1
"22/09/02","19:20",0.0,25.9,81.0,1008.3,319.9,1.5,2.2,349.5,0.00,22.4,27.9,"19:11:04",1
"22/09/02","19:30",0.0,25.7,81.8,1007.8,329.9,1.6,3.1,357.5,0.00,22.4,27.7,"19:29:04",1
"22/09/02","19:40",0.0,25.5,82.4,1008.3,329.9,1.8,3.1,326.3,0.00,22.3,27.7,"19:38:56",1
"22/09/02","19:50",0.0,25.4,83.0,1008.3,321.8,1.5,3.1,337.9,0.00,22.3,27.6,"19:46:40",1
"22/09/02","20:00",0.0,25.3,83.4,1008.1,324.0,1.5,2.5,347.1,0.00,22.3,27.7,"19:52:24",1
"22/09/02","20:10",0.0,25.3,83.5,1008.6,326.6,1.8,2.9,319.2,0.00,22.3,27.6,"20:08:00",1
"22/09/02","20:20",0.0,25.3,83.7,1008.8,330.6,1.7,3.3,327.2,0.00,22.4,27.6,"20:12:48",1
"22/09/02","20:30",0.0,25.2,84.1,1008.8,332.9,1.7,3.1,340.8,0.00,22.4,27.5,"20:26:00",1
"22/09/02","20:40",0.0,25.2,84.3,1009.0,329.6,1.8,3.7,329.5,0.00,22.4,27.4,"20:32:32",1
"22/09/02","20:50",0.0,25.0,84.6,1009.3,327.2,1.6,4.1,338.7,0.00,22.3,27.4,"20:49:44",1
"22/09/02","21:00",0.0,24.9,84.8,1009.3,331.6,1.7,3.1,344.3,0.00,22.2,27.4,"20:55:20",1
"22/09/02","21:10",0.0,24.9,85.0,1009.5,332.6,1.7,3.2,350.0,0.00,22.2,27.5,"21:06:40",1
"22/09/02","21:20",0.0,24.8,85.4,1009.3,321.3,1.7,3.9,328.0,0.00,22.2,27.3,"21:16:08",1
"22/09/02","21:30",0.0,24.8,85.7,1009.5,324.6,1.7,2.6,325.7,0.00,22.3,27.4,"21:22:08",1
"22/09/02","21:40",0.0,24.8,85.8,1010.0,325.8,1.8,3.2,340.3,0.00,22.3,27.1,"21:32:24",1
"22/09/02","21:50",0.0,24.9,86.0,1009.7,304.0,1.1,2.0,282.7,0.00,22.4,27.1,"21:46:16",1
"22/09/02","22:00",0.0,24.8,86.2,1010.2,297.8,1.1,2.4,336.6,0.00,22.4,27.1,"21:52:32",1
"22/09/02","22:10",0.0,24.8,86.3,1010.0,276.5,1.1,1.9,255.0,0.00,22.4,26.9,"22:00:08",1
"22/09/02","22:20",0.0,24.8,86.4,1010.0,304.5,1.3,2.4,309.5,0.00,22.4,27.1,"22:16:56",1
"22/09/02","22:30",0.0,24.8,86.6,1010.0,311.9,1.3,2.6,339.9,0.00,22.5,27.0,"22:24:16",1
"22/09/02","22:40",0.0,24.7,86.8,1010.0,300.0,1.1,3.3,337.5,0.00,22.4,27.1,"22:36:56",1
"22/09/02","22:50",0.0,24.7,87.0,1010.2,323.7,1.3,2.7,349.5,0.00,22.4,27.0,"22:44:16",1
"22/09/02","23:00",0.0,24.6,87.2,1010.0,317.1,1.5,3.4,337.6,0.00,22.4,27.1,"22:59:20",1
"22/09/02","23:10",0.0,24.5,87.5,1010.0,330.3,1.6,2.5,341.0,0.00,22.3,26.9,"23:07:20",1
"22/09/02","23:20",0.0,24.5,87.8,1010.0,334.7,2.0,3.3,328.8,0.00,22.4,26.8,"23:14:32",1
"22/09/02","23:30",0.0,24.3,88.2,1010.0,336.4,1.6,2.9,336.8,0.00,22.3,26.9,"23:28:00",1
"22/09/02","23:40",0.0,24.2,88.9,1010.0,343.6,1.6,3.5,350.2,0.00,22.3,26.7,"23:33:28",1
"22/09/02","23:50",0.0,24.2,89.3,1009.5,336.4,1.5,2.2,334.3,0.00,22.4,26.9,"23:40:56",1
"22/09/02","24:00",0.0,24.1,89.7,1009.3,319.8,2.0,3.6,343.8,0.00,22.3,26.6,"23:59:20",1
